Location: Hilton Head Island
(32.2163°N, 80.7526°W)
Time: 22:08:27
(UTC-05:00)

Tiros 1 despin weight - Pass Details

Date: 22 February 2026
Orbit: 556 x 593 km, 48.2° (Epoch: 7 March)

Event Time Altitude Azimuth Distance (km) Brightness Sun altitude
Rises 20:26:03 0° 304° (NW) 2,731 ? -28.4°
Reaches altitude 10° 20:28:21 10° 298° (WNW) 1,835 ? -28.9°
Enters shadow 20:31:01 34° 275° (W) 928 ? -29.4°
Maximum altitude 20:32:23 48° 224° (SW) 729 - -29.7°
Drops below altitude 10° 20:36:26 10° 150° (SSE) 1,839 - -30.5°
Sets 20:38:44 0° 144° (SE) 2,738 - -31.0°
